EW7285 Weather Reports


Display with metric or nautical units.
time (UTC)temp
F
wind
direction
speed
MPH
gust
MPH
rain 1hr
in
rain 24hr
in
rain mn
in
humidity
%
barometer
mb
20260510083015 55 140 9.0 15.0 0.00 0.00 0.00 42 1012.2
20260510081511 55 148 7.0 14.0 0.00 0.00 0.00 44 1012.4
20260510080009 54 53 7.0 14.0 0.00 0.00 0.00 44 1012.6
20260510074505 53 107 5.0 15.0 0.00 0.00 0.00 47 1012.9
20260510073110 53 171 8.0 13.0 0.00 0.00 0.00 48 1013.1
20260510071556 52 121 6.0 15.0 0.00 0.00 0.00 46 1013.2
20260510070052 52 133 7.0 12.0 0.00 0.00 0.00 50 1013.5
20260510064549 51 167 9.0 13.0 0.00 0.00 0.00 50 1013.7
20260510063045 50 153 5.0 11.0 0.00 0.00 0.00 54 1013.9
20260510061542 50 161 9.0 13.0 0.00 0.00 0.00 55 1014.1
20260510060038 48 125 4.0 8.0 0.00 0.00 0.00 62 1014.1
20260510054535 47 74 4.0 9.0 0.00 0.00 0.00 66 1014.4
20260510053030 46 158 3.0 8.0 0.00 0.00 0.00 70 1014.5
20260510051526 45 138 1.0 6.0 0.00 0.00 0.00 73 1014.6
20260510050023 44 141 2.0 8.0 0.00 0.00 0.00 79 1014.7
20260510044520 41 71 1.0 4.0 0.00 0.00 0.00 92 1014.9
20260510043017 37 86 0.0 0.0 0.00 0.00 0.00 92 1015.1
20260510041515 34 86 0.0 0.0 0.00 0.00 0.00 92 1015.4
20260510040010 32 86 0.0 0.0 0.00 0.00 0.00 91 1015.5
20260510034514 32 86 0.0 0.0 0.00 0.00 0.00 92 1015.7
20260510033005 31 86 0.0 0.0 0.00 0.00 0.00 92 1016.1
20260510031502 30 111 0.0 0.0 0.00 0.00 0.00 92 1016.3
20260510030059 29 111 0.0 0.0 0.00 0.00 0.00 92 1016.4
20260510024605 29 111 0.0 0.0 0.00 0.00 0.00 91 1016.5
20260510023056 28 111 0.0 0.0 0.00 0.00 0.00 91 1016.7
20260510021552 29 111 0.0 0.0 0.00 0.00 0.00 91 1016.9
20260510020050 29 111 0.0 0.0 0.00 0.00 0.00 91 1017.1
20260510014547 30 111 0.0 0.0 0.00 0.00 0.00 91 1017.2
20260510013045 30 111 0.0 0.0 0.00 0.00 0.00 90 1017.3
20260510011541 30 111 0.0 0.0 0.00 0.00 0.00 90 1017.6
20260510010040 31 111 0.0 0.0 0.00 0.00 0.00 90 1017.7
20260510004536 31 111 0.0 0.0 0.00 0.00 0.00 90 1017.8
20260510003034 32 111 0.0 0.0 0.00 0.00 0.00 90 1017.9
20260510001531 32 111 0.0 0.0 0.00 0.00 0.00 90 1017.9
20260510000035 32 111 0.0 0.0 0.00 0.00 0.00 89 1018.1
20260509234537 33 111 0.0 2.0 0.00 0.00 0.00 89 1018.2
20260509233021 33 111 0.0 0.0 0.00 0.00 0.00 88 1018.5
20260509231518 34 111 0.0 0.0 0.00 0.00 0.00 87 1018.6
20260509230014 35 111 0.0 1.0 0.00 0.00 0.00 88 1018.9
20260509224526 35 111 0.0 3.0 0.00 0.00 0.00 86 1019.0
20260509223009 35 111 0.0 0.0 0.00 0.00 0.00 85 1019.1
20260509221506 36 111 0.0 0.0 0.00 0.00 0.00 84 1019.1
20260509220002 37 111 0.0 2.0 0.00 0.00 0.00 83 1019.4
20260509214501 38 111 0.0 1.0 0.00 0.00 0.00 81 1019.4
20260509213100 40 111 0.0 3.0 0.00 0.00 0.00 78 1019.5
20260509211557 42 111 0.0 3.0 0.00 0.00 0.00 76 1019.7
20260509204601 43 120 0.0 3.0 0.00 0.00 0.00 74 1020.0
20260509203105 43 96 2.0 5.0 0.00 0.00 0.00 72 1020.0
20260509201554 44 103 1.0 3.0 0.00 0.00 0.00 70 1020.2
20260509200052 44 123 2.0 6.0 0.00 0.00 0.00 68 1020.3
20260509194551 45 118 1.0 4.0 0.00 0.00 0.00 64 1020.3
20260509193051 45 110 0.0 4.0 0.00 0.00 0.00 61 1020.4
20260509191549 45 124 3.0 8.0 0.00 0.00 0.00 59 1020.4
20260509190049 46 153 0.0 7.0 0.00 0.00 0.00 58 1020.6
20260509184550 47 96 1.0 5.0 0.00 0.00 0.00 57 1020.6
20260509183048 47 66 1.0 4.0 0.00 0.00 0.00 55 1020.6
20260509181605 48 150 1.0 4.0 0.00 0.00 0.00 52 1020.7
20260509180110 49 115 3.0 8.0 0.00 0.00 0.00 51 1020.7
20260509174544 50 80 3.0 9.0 0.00 0.00 0.00 50 1020.8
20260509173054 50 109 2.0 11.0 0.00 0.00 0.00 48 1020.7
20260509171550 51 75 3.0 11.0 0.00 0.00 0.00 47 1020.8
20260509170050 52 98 1.0 9.0 0.00 0.00 0.00 47 1020.8
20260509164540 52 64 3.0 11.0 0.00 0.00 0.00 46 1020.9
20260509163039 52 72 5.0 14.0 0.00 0.00 0.00 46 1020.9
20260509161541 52 74 7.0 15.0 0.00 0.00 0.00 45 1021.1
20260509160035 53 158 8.0 16.0 0.00 0.00 0.00 45 1021.1
20260509154533 53 125 12.0 17.0 0.00 0.00 0.00 43 1021.3
20260509153033 53 80 7.0 16.0 0.00 0.00 0.00 42 1021.5
20260509151526 54 169 5.0 11.0 0.00 0.00 0.00 40 1021.5
20260509150025 54 153 5.0 15.0 0.00 0.00 0.00 40 1021.6
20260509144522 55 130 4.0 14.0 0.00 0.00 0.00 40 1021.8
20260509143021 55 87 9.0 17.0 0.00 0.00 0.00 39 1021.8
20260509141534 55 131 5.0 18.0 0.00 0.00 0.00 40 1022.0
20260509140015 56 139 5.0 15.0 0.00 0.00 0.00 39 1022.0
20260509134525 56 113 9.0 18.0 0.00 0.00 0.00 39 1022.1
20260509133009 56 89 7.0 14.0 0.00 0.00 0.00 39 1022.4
20260509131506 56 103 5.0 11.0 0.00 0.00 0.00 39 1022.6
20260509130003 56 82 5.0 15.0 0.00 0.00 0.00 39 1022.8
20260509124600 56 84 5.0 20.0 0.00 0.00 0.00 41 1023.0
20260509123058 56 152 9.0 16.0 0.00 0.00 0.00 41 1023.2
20260509121556 56 87 11.0 18.0 0.00 0.00 0.00 39 1023.4
20260509120059 56 161 7.0 15.0 0.00 0.00 0.00 39 1023.7
20260509114554 55 61 7.0 18.0 0.00 0.00 0.00 40 1023.7
20260509113054 55 166 13.0 21.0 0.00 0.00 0.00 41 1023.8
20260509111552 56 163 8.0 12.0 0.00 0.00 0.00 45 1023.7
20260509110052 56 67 9.0 18.0 0.00 0.00 0.00 39 1023.9
20260509104606 55 74 11.0 19.0 0.00 0.00 0.00 44 1024.0
20260509103058 55 75 5.0 12.0 0.00 0.00 0.00 42 1024.1
20260509101546 56 123 5.0 13.0 0.00 0.00 0.00 39 1024.3
20260509100045 55 151 7.0 17.0 0.00 0.00 0.00 37 1024.3
20260509094546 56 46 6.0 13.0 0.00 0.00 0.00 39 1024.3
20260509093043 55 70 4.0 15.0 0.00 0.00 0.00 39 1024.4
20260509091545 55 130 7.0 22.0 0.00 0.00 0.00 37 1024.4
20260509090051 55 72 12.0 20.0 0.00 0.00 0.00 37 1024.6
20260509084539 55 82 11.0 18.0 0.00 0.00 0.00 40 1024.6